Location: Nelson
(41.2830°S, 173.2830°E)
Time: 12:56:13
(UTC+13:00)

Radarsat Rocket - Pass Details

Date: 02 October 2021
Orbit: 933 x 1492 km, 100.6° (Epoch: 27 October)

Event Time Altitude Azimuth Distance (km) Brightness Sun altitude
Rises 20:54:17 0° 170° (S) 4,207 7.4 -15.6°
Reaches altitude 10° 20:57:11 10° 175° (S) 3,153 6.8 -16.1°
Maximum altitude 21:03:50 45° 244° (WSW) 1,461 5.4 -17.3°
Drops below altitude 10° 21:09:45 10° 314° (NW) 2,794 6.7 -18.3°
Sets 21:12:11 0° 320° (NW) 3,687 7.2 -18.7°
